EDT,Max TemperatureF,Mean TemperatureF,Min TemperatureF,Max Dew PointF,MeanDew PointF,Min DewpointF,Max Humidity, Mean Humidity, Min Humidity, Max Sea Level PressureIn, Mean Sea Level PressureIn, Min Sea Level PressureIn, Max VisibilityMiles, Mean VisibilityMiles, Min VisibilityMiles, Max Wind SpeedMPH, Mean Wind SpeedMPH, Max Gust SpeedMPH,PrecipitationIn, CloudCover, Events, WindDirDegrees
2012-8-1,87,84,82,80,77,74,94,81,65,30.01,29.97,29.93,10,10,10,13,6,,0.04,1,,255
2012-8-2,89,84,81,79,77,74,94,79,65,30.00,29.96,29.92,10,10,10,14,5,20,0.00,1,,250
2012-8-3,93,86,80,79,76,71,94,78,54,30.03,29.98,29.93,10,10,10,22,5,,0.00,1,Thunderstorm,111
2012-8-4,91,85,79,79,75,71,94,75,52,30.05,30.00,29.96,10,10,10,15,7,,0.00,0,,99
2012-8-5,91,84,78,80,78,74,100,86,63,30.08,30.04,29.99,10,10,10,24,9,,0.00,1,Thunderstorm,146
2012-8-6,93,84,75,81,78,75,100,92,56,30.08,30.01,29.97,10,7,0,23,10,21,2.64,4,Fog-Rain-Thunderstorm,118
2012-8-7,90,83,77,82,78,76,100,87,65,30.03,30.00,29.96,10,10,10,12,8,,0.00,1,,170
2012-8-8,91,86,82,81,78,74,94,80,59,30.04,30.01,29.97,10,10,10,12,6,,0.00,2,,189
2012-8-9,93,86,81,79,76,71,91,74,52,30.03,29.98,29.92,10,10,10,13,9,,0.00,1,,138
2012-8-10,90,82,75,81,76,70,100,83,63,29.98,29.95,29.91,10,8,0,20,9,56,1.60,3,Fog-Rain-Thunderstorm,185
2012-8-11,88,83,78,81,77,74,97,85,63,30.01,29.97,29.91,10,8,0,13,7,17,0.61,3,Fog-Rain-Thunderstorm,193
2012-8-12,89,82,77,80,77,73,100,85,63,30.03,30.01,29.96,10,9,0,24,7,29,0.49,3,Rain-Thunderstorm,210
2012-8-13,88,83,78,82,80,77,100,91,74,30.07,30.03,30.00,10,8,0,15,6,17,1.12,3,Fog-Rain-Thunderstorm,147
2012-8-14,91,84,77,80,78,74,100,82,59,30.04,30.01,29.98,10,10,10,22,4,32,0.00,1,,151
2012-8-15,90,84,78,81,77,75,100,80,63,30.05,30.00,29.96,10,10,10,10,6,,0.00,0,,185
2012-8-16,91,86,82,83,79,73,91,78,55,30.08,30.02,29.99,10,10,10,12,3,16,0.01,0,,215
2012-8-17,88,85,82,82,79,75,94,84,74,30.04,29.99,29.94,10,9,2,10,3,24,0.15,3,Rain,256
2012-8-18,84,80,75,81,78,75,100,92,82,30.03,29.96,29.89,10,8,2,23,6,28,0.37,3,Rain-Thunderstorm,251
2012-8-19,90,84,78,81,79,73,100,83,65,29.99,29.95,29.91,10,10,2,18,8,28,0.14,3,Rain-Thunderstorm,250
2012-8-20,90,84,78,80,78,73,100,84,67,30.02,29.96,29.89,10,9,1,18,10,45,0.30,2,Rain-Thunderstorm,246
2012-8-21,90,82,75,81,77,75,100,91,67,30.10,30.02,29.94,10,7,1,23,12,32,2.60,5,Rain,223
2012-8-22,87,81,75,79,76,72,100,92,69,30.09,30.05,30.00,10,8,1,16,12,28,0.33,3,Rain,228
2012-8-23,87,82,78,76,74,72,88,76,63,30.10,30.06,30.01,10,10,10,9,6,,0.00,0,,108
2012-8-24,91,86,80,79,77,72,94,79,52,30.06,30.01,29.93,10,10,10,22,9,,0.00,0,,65
2012-8-25,89,84,80,79,76,71,94,79,55,30.01,29.98,29.94,10,10,10,21,17,,0.00,0,,81
2012-8-26,84,81,78,81,79,77,100,95,85,29.99,29.89,29.81,10,9,4,34,22,43,0.17,4,Rain,64
2012-8-27,87,82,78,83,81,79,100,97,89,29.83,29.74,29.70,10,7,2,32,27,43,0.71,7,Rain,121
2012-8-28,89,84,80,82,81,79,100,93,75,29.95,29.87,29.83,10,10,4,23,19,31,0.04,3,Rain,177
2012-8-29,89,83,78,82,80,77,100,91,72,29.98,29.93,29.90,10,10,10,18,14,28,0.00,3,,182
2012-8-30,91,85,80,79,78,74,96,84,65,30.11,30.01,29.95,10,10,10,15,9,21,0.00,0,,145
2012-8-31,91,86,80,82,79,75,97,83,59,30.17,30.11,30.07,10,10,10,14,6,,0.00,0,,94